Voltar ao catálogo

DELTA 1 DEB

AtivoPO
NORAD 21566·DEBRIS·🇺🇸 United States

Lançado Jun 12, 1975 de Vandenberg Space Force Base

Loading…

Próximas Passagens (próximas 24 horas)

TLE

AtualizadoSource: Space-Track

Época: Sep 13, 2026, 22:13 UTC

1 21566U 75052HL  26256.92590624  .00000062  00000-0  33173-3 0  9995
2 21566  99.5801 251.6464 0323685 303.7581  81.6008 12.83942513655058

Acompanhe DELTA 1 DEB em tempo real com AllMySat

Download on the App Store